Regional Weather Roundup
Issued by NWS

Home | Current Version | Previous Version | Text Only | Print | Product List | Glossary On
Versions: 1 2 3 4 5 6 7 8 9 10 11 12 13 14 15 16 17 18 19 20 21 22 23 24 25 26 27 28 29 30 31 32 33 34 35 36 37 38 39 40 41 42 43 44 45 46 47 48 49 50
000
ASUS43 KMPX 220401
RWRMN
WEATHER ROUNDUP FOR MINNESOTA
NATIONAL WEATHER SERVICE TWIN CITIES/CHANHASSEN MN
1100 PM CDT WED JUN 21 2017


NOTE: "FAIR" INDICATES FEW OR NO CLOUDS BELOW 12,000 FEET WITH NO
SIGNIFICANT WEATHER AND/OR OBSTRUCTIONS TO VISIBILITY. N/A MEANS
CURRENT SKY AND/OR WEATHER CONDITIONS ARE NOT AVAILABLE.

MNZ060>063-068>070-220500-
   Twin Cities Metro

CITY           SKY/WX    TMP DP  RH WIND       PRES   REMARKS
TWIN CITIES    CLOUDY    73  61  65 SE6       29.73R
ST PAUL        CLOUDY    71  63  75 SE3       29.73R
CRYSTAL        CLOUDY    73  60  63 CALM      29.73R
BLAINE         CLOUDY    73  63  68 CALM      29.75R
LAKEVILLE      PTCLDY    72  61  68 SE5       29.73F
EDEN PRAIRIE   CLOUDY    74  62  66 S7        29.72S
SOUTH ST PAUL  CLOUDY    72  60  67 SE7       29.72S
LAKE ELMO      FAIR      70  61  73 SE3       29.75R
$$
MNZ001>005-007-008-013>017-022>024-027-028-220500-
   Northwest Minnesota

CITY           SKY/WX    TMP DP  RH WIND       PRES   REMARKS
BEMIDJI        MOCLDY    62  62  99 CALM      29.68R
HALLOCK        CLEAR     63  50  63 W3        29.66R
ROSEAU         CLEAR     64  59  82 W9        29.63R
WARROAD        CLEAR     64  61  88 W14G22    29.61R
CROOKSTON      CLEAR     61  54  77 NW5       29.69R
FOSSTON        CLEAR     61  54  77 NW5       29.69R
DETROIT LAKES  PTCLDY    70  61  73 W8        29.71R
MOORHEAD       MOCLDY    72  55  56 NW7       29.71R
PARK RAPIDS    CLOUDY    72  61  68 W7        29.69R
MAHNOMEN       FAIR      66  61  82 NW3       29.69R
$$
MNZ006-009>011-018-025>026-220500-
   North Central Minnesota

CITY           SKY/WX    TMP DP  RH WIND       PRES   REMARKS
BAUDETTE       CLEAR     60  58  92 S8        29.61S
FLAG ISLAND    PTCLDY    61  55  82 N5        29.60R
INTL FALLS     CLEAR     58  55  90 SE3       29.63S
WASKISH        PTCLDY    63  61  94 SW8G16    29.64R
BIG FORK       CLOUDY    61  59  94 S3        29.67F
LONGVILLE      MOCLDY    72  61  68 S6        29.68R
GRAND RAPIDS   TSTM      59  56  89 NE6       29.70R
CRANE LAKE     CLOUDY    55  55 100 SE5       29.67F
ORR            DRIZZLE   57  54  88 S8        29.67S
COOK           LGT RAIN  57  55  94 SE3       29.71S
WALKER         CLOUDY    70  61  72 SW6       29.67R
$$
MNZ012-019>021-037-220500-
   Northeast Minnesota

CITY           SKY/WX    TMP DP  RH WIND       PRES   REMARKS
DULUTH         CLOUDY    57  49  74 SE9       29.72F
ELY            LGT RAIN  55  48  76 E5        29.73F
HIBBING        LGT RAIN  56  53  90 NE7       29.70F
EVELETH        RAIN      58  49  74 NE5       29.73F
DULUTH HARBOR  CLOUDY    55  52  88 NE13      29.74R
TWO HARBORS    LGT RAIN  59  50  72 E3        29.71F
SILVER BAY     CLOUDY    57  48  72 N7        29.73F
GRAND MARAIS     N/A     50  48  93 CALM      29.75F
G MARAIS ARPRT CLOUDY    54  43  66 CALM      29.79S
$$
MNZ029>031-032-039>041-046>048-054>057-064-220500-
   West Central Minnesota

CITY           SKY/WX    TMP DP  RH WIND       PRES   REMARKS
FERGUS FALLS   CLOUDY    70  70 100 NW5       29.67R
WHEATON        CLOUDY    68  64  88 W3        29.71R
MORRIS         CLOUDY    70  66  88 E8        29.68S
ALEXANDRIA     CLOUDY    69  66  90 S9        29.71S
ELBOW LAKE     RAIN      69  67  93 S3        29.71R
WADENA         CLOUDY    68  63  83 SW7       29.68R
GLENWOOD       MOCLDY    68  64  88 SE7       29.70F
APPLETON       CLOUDY    73  66  78 SE7       29.66F
BENSON         CLOUDY    75  64  69 S8        29.70F
ORTONVILLE     PTCLDY    73  68  83 CALM      29.68F
MADISON        PTCLDY    77  66  69 CALM      29.67F
$$
MNZ033>034-036-042>043-049>051-058-059-220500-
   Central Minnesota

CITY           SKY/WX    TMP DP  RH WIND       PRES   REMARKS
ST CLOUD       MOCLDY    72  64  76 S6        29.74S
SAUK CENTRE    FAIR      68  64  88 SE7       29.70F
PAYNESVILLE    CLOUDY    73  64  73 E5        29.74F
AITKIN         CLOUDY    70  61  73 S8        29.68R
PINE RIVER     LGT RAIN  66  64  94 S6        29.72R
BRAINERD       CLOUDY    69  61  75 S13       29.68S
STAPLES        PTCLDY    68  61  77 S13       29.68S
LONG PRAIRIE   FAIR      68  63  83 S10       29.70R
LITTLE FALLS   CLOUDY    68  63  83 S6G16     29.69F
BUFFALO        LGT RAIN  72  62  71 CALM      29.76R
MAPLE LAKE     DRIZZLE   71  65  81 CALM      29.76R
HUTCHINSON     CLEAR     72  65  79 SE5       29.73F
$$
MNZ037-044-045-052-053-220500-
   East Central Minnesota

CITY           SKY/WX    TMP DP  RH WIND       PRES   REMARKS
PRINCETON      MOCLDY    72  63  73 SE5       29.73F
MORA           LGT RAIN  68  59  73 S9        29.73F
CAMBRIDGE      DRIZZLE   72  59  64 CALM      29.73F
RUSH CITY      RAIN      70  61  73 S10       29.74F
MOOSE LAKE     CLOUDY    70  54  56 S3        29.69F
HINCKLEY       LGT RAIN  70  61  73 S13G21    29.70F
CLOQUET        CLOUDY    57  48  72 E5        29.71F
MCGREGOR       CLOUDY    68  57  68 S7        29.68F
$$
MNZ071>073-080-081-089-090-097-098-220500-
   Southwest Minnesota

CITY           SKY/WX    TMP DP  RH WIND       PRES   REMARKS
MONTEVIDEO     CLOUDY    73  66  78 S8        29.68F
GRANITE FALLS  PTCLDY    76  68  76 E3        29.71F
CANBY          PTCLDY    74  67  81 CALM      29.69F
REDWOOD FALLS  PTCLDY    74  65  73 SE5       29.70R
OLIVIA         CLOUDY    73  64  73 SE6       29.71R
PIPESTONE      CLEAR     75  68  78 NE3       29.71R
WINDOM         CLEAR     73  66  78 E8        29.69F
WORTHINGTON    LGT RAIN  73  70  90 E6        29.70R
JACKSON        PTCLDY    72  68  88 SE5       29.70F
TRACY          CLOUDY    73  68  86 N5        29.71S
SLAYTON        HVY RAIN  72  63  72 SE5       29.72R
$$
MNZ065>067-074>077-082>085-091>093-220500-
   South Central Minnesota

CITY           SKY/WX    TMP DP  RH WIND       PRES   REMARKS
MANKATO        CLOUDY    71  63  75 SE15      29.70F
NEW ULM        MOCLDY    72  64  78 E6        29.70S
ST JAMES       CLEAR     72  66  83 SE9       29.70S
FAIRMONT       PTCLDY    72  68  87 SE8       29.69F
GLENCOE        MOCLDY    72  66  81 SE5       29.72S
FARIBAULT      PTCLDY    72  63  73 SE8       29.72F
OWATONNA       MOCLDY    72  64  78 SE12      29.72F
WASECA         PTCLDY    70  63  78 SE9       29.73F
ALBERT LEA     PTCLDY    70  63  78 SE8       29.73F
$$
MNZ078>079-086>088-094>096-220500-
   Southeast Minnesota

CITY           SKY/WX    TMP DP  RH WIND       PRES   REMARKS
ROCHESTER      PTCLDY    67  62  84 SE12      29.76F
RED WING       MOCLDY    72  57  60 SE8       29.73F
STANTON        CLOUDY    72  61  69 SE5       29.72F
DODGE CENTER   MOCLDY    70  61  73 SE8       29.75F
WINONA         CLOUDY    70  59  68 SE6       29.77F
AUSTIN         CLOUDY    70  63  78 SE7       29.74F
PRESTON        CLOUDY    67  60  79 SE7       29.78F
$$
ABBREVIATIONS USED IN REMARKS
   TC - TEMPERATURES IN CELSIUS
  WCI - WIND CHILL INDEX
   HX - HEAT INDEX
  VSB - VISIBILITY
$$




USA.gov is the U.S. government's official web portal to all federal, state and local government web resources and services.